STARLINK-1307, 45397

Orbit data source: Space-Track

STARLINK-1307, 45397 is a payload satellite owned by SpaceX/Seattle (US) in LEO that was launched on Wed, 18 Mar 2020 UTC via an FALCON 9 launch vehicle from the Air Force Eastern Test Range (AFETR). Payload-class satellites include a variety of spacecraft equipped with specific instruments for various scientific and technological missions. These include communications satellites like Starlink; space stations such as the ISS; scientific satellites like the Hubble; Earth observation satellites from companies like Planet Labs, Umbra, and HawkEye 360; GPS; miniature CubeSats for education and research; and military/defense satellites.

Loading next visibility...
Identifier
45397, 2020-019AP
Orbit
LEO
Last TLE update
17 hours ago
Origin
Manufacturer
SpaceX/Seattle
Mission
Operational Commercial Communications
Bus & Motor
STARLINK, Unknown motor
Mass
260 kg wet, ~248 kg dry
Launch date (UTC)
2020-03-18 (5 years ago)
Launch vehicle
FALCON 9
Launch site
Air Force Eastern Test Range (AFETR)
Object type
Payload
Rocket body
Debris
Shape & HBR
Box + 1 Pan, 8.86 m
Radar Cross Section
13.562 m², Large (>1 m²)

Expand to show TLE details & history

TLE from 17 hours ago
0 STARLINK-1307
1 45397U 20019AP  25128.58658519 -.00000025  00000-0  17222-4 0  9991
2 45397  53.0558  76.2760 0001503  94.3945 265.7216 15.06395192283842
Epoch: 2025-05-08T14:04Z
Definitive object data (Epoch: 2025-05-08T14:04:40.96Z)
Latitude
Longitude
-1.54962°
Altitude
548.183 km
Speed
7.589 km/s
True Right ascension
05h 05m 06s
True Declination
0° 00' 00"
Sunlit
Object was in daylight at TLE epoch
Visualization TLE readout
Latitude
-45.98646°
Longitude
-134.00467°
Altitude
563.73 km
Speed
7.579 km/s
Apparent Right ascension
23h 46m 32s
Apparent Declination
-56° 38' 51"
Sunlit
Object is in daylight
Visualization observer readout
Local Sidereal Time
15:13:40
Azimuth
134.36° SE
Elevation
-52.83°
Doppler factor
1
Orbital elements
Apogee altitude
548.538 km
Perigee altitude
546.456 km
Semi-major axis
6,925.634 km
Eccentricity
0.0001503
Inclination
53.0558°
RAAN
76.276°
Arg. of periapsis
94.3945°
True anomaly
265.70443°
Mean anomaly
265.7216°
Eccentric anomaly
265.71301°
Mean motion
3.76577 °/min
BSTAR
0.000017222
Orbital period
95.6 mins
Loading maneuver chart data...
Loading SW <> Apogee altitude chart data...
Loading historical data...
Loading historical data...
Loading historical data...
Loading historical data...
Loading historical data...
Loading historical data...
Loading historical data...

STARLINK-1307 Visibility forecast

Observer location: undefined°, undefined°

Span
Click to sort rows by Start time (UTC) header in descending order
Start Az.
Max El. time (UTC)
Max El. Az.
Max El.
End time (UTC)
End Az.
6 mins2025-05-09 22:04:44.268Z183.922° SSW2025-05-09 22:07:44.268Z124.705° SE25.148°2025-05-09 22:10:44.268Z73.384° E
6 mins2025-05-09 23:44:44.268Z267.789° W2025-05-09 23:46:44.268Z319.726° NNW33.841°2025-05-09 23:50:44.268Z39.257° NE
5 mins2025-05-10 04:46:44.268Z340.457° N2025-05-10 04:48:44.268Z29.962° NE28.973°2025-05-10 04:51:44.268Z90.595° ESE
6 mins2025-05-10 06:25:44.268Z286.986° WNW2025-05-10 06:28:44.268Z209.833° SW31.223°2025-05-10 06:31:44.268Z160.153° S
|